Location: Lecco
(45.8566°N, 9.3977°E)
Time: 12:41:55
(UTC+02:00)

Courier 1B - All Passes

Search period start: 17 October 2019 00:00
Search period end: 27 October 2019 00:00
Orbit: 962 x 1209 km, 28.3° (Epoch: 17 October)

Date Brightness Start Highest point End Pass type
(mag) Time Alt. Az. Time Alt. Az. Time Alt. Az.
17 Oct - 20:44:44 10° SSW 20:49:27 17° S 20:54:04 10° SE visible
17 Oct - 22:37:22 10° SW 22:42:27 19° S 22:47:23 10° SE visible
18 Oct - 00:32:16 10° SW 00:35:18 13° SSW 00:38:17 10° S night (unlit)
18 Oct - 19:51:36 10° SSW 19:55:51 16° SSE 20:00:04 10° SE visible
18 Oct - 21:43:35 10° SW 21:48:52 20° S 21:54:00 10° SE visible
18 Oct - 23:37:42 10° SW 23:41:49 16° SSW 23:45:49 10° SSE night (unlit)
19 Oct - 18:58:50 10° S 19:02:16 13° SSE 19:05:42 10° SE visible
19 Oct - 20:49:58 10° SW 20:55:15 20° S 21:00:26 10° SE visible
19 Oct - 22:43:29 10° SW 22:48:16 18° SSW 22:52:55 10° SSE visible
20 Oct - 18:06:58 10° S 18:08:43 11° SSE 18:10:29 10° SE daylight
20 Oct - 19:56:30 10° SSW 20:01:38 19° S 20:06:43 10° SE visible
20 Oct - 21:49:29 10° SW 21:54:41 19° S 21:59:45 10° SE visible
20 Oct - 23:45:08 10° SW 23:47:32 12° SSW 23:49:55 10° S night (unlit)
21 Oct - 19:03:14 10° SSW 19:08:02 17° SSE 19:12:48 10° SE visible
21 Oct - 20:55:39 10° SW 21:01:04 20° S 21:06:24 10° SE visible
21 Oct - 22:50:12 10° SW 22:54:01 14° SSW 22:57:47 10° SSE visible
22 Oct - 18:10:14 10° SSW 18:14:25 15° SSE 18:18:37 10° SE daylight
22 Oct - 20:01:58 10° SW 20:07:26 21° S 20:12:51 10° SE visible
22 Oct - 21:55:49 10° SW 22:00:28 17° SSW 22:05:01 10° SSE visible
23 Oct - 17:17:43 10° S 17:20:51 13° SSE 17:24:01 10° SE daylight
23 Oct - 19:08:27 10° SW 19:13:48 20° S 19:19:09 10° SE visible
23 Oct - 21:01:45 10° SW 21:06:52 19° S 21:11:55 10° SSE visible
23 Oct - 22:59:04 10° SSW 22:59:43 10° SSW 23:00:21 10° SSW visible
24 Oct - 18:15:06 10° SSW 18:20:11 19° S 18:25:17 10° SE daylight
24 Oct - 20:07:51 10° SW 20:13:14 20° S 20:18:35 10° SE visible
24 Oct - 22:02:56 10° SW 22:06:11 13° SSW 22:09:24 10° S visible
25 Oct - 17:22:00 10° SSW 17:26:34 17° SSE 17:31:13 10° SE daylight
25 Oct - 19:14:09 10° SW 19:19:36 21° S 19:25:05 10° SE visible
25 Oct - 21:08:21 10° SW 21:12:37 16° SSW 21:16:51 10° SSE visible
26 Oct - 16:29:14 10° SSW 16:33:00 14° SSE 16:36:50 10° SE daylight
26 Oct - 18:20:36 10° SW 18:25:58 21° S 18:31:25 10° SE daylight
26 Oct - 20:14:10 10° SW 20:19:02 18° SSW 20:23:52 10° SSE visible
